Location: ??????
(55.6200°N, 37.2747°E)
Time: 13:35:49
(UTC+00:00)

Daily predictions for brighter satellites

Satellite Brightness Start Highest point End
(mag) Time Altitude Azimuth Time Altitude Azimuth Time Altitude Azimuth
CZ-4C R/B 1.9 18:12:25 10° SW 18:16:55 86° SE 18:22:50 10° NE
Cosmos 2016 Rocket 4.1 18:10:55 10° S 18:17:10 87° E 18:23:23 10° NNE
Cosmos 724 4.3 18:12:55 10° SSW 18:18:53 73° SE 18:24:47 10° NE
SL-08 R/B 3.3 18:17:32 10° NNE 18:22:25 80° ESE 18:27:11 10° SSW
CZ-4B R/B 2.7 18:20:34 10° SSE 18:23:54 59° ENE 18:27:20 10° N
NOSS 3-3 (C) 4.1 18:24:34 10° SSW 18:29:35 43° SE 18:35:34 10° NE
COSMOS 2406 3.7 18:24:48 10° S 18:30:07 40° ESE 18:35:27 10° NE
Cosmos 1980 Rocket 4.0 18:26:58 10° NW 18:31:40 27° WSW 18:36:19 10° SSW
Meteor 1-20 Rocket 4.3 18:26:30 10° NNW 18:32:05 79° ENE 18:37:45 10° SSE
USA 306 2.1 18:29:22 10° SW 18:32:09 34° SSE 18:34:02 10° E
Terra 3.4 18:31:30 10° SSW 18:35:41 32° W 18:39:54 10° NNW
Helios 1A Rocket 3.9 18:33:47 10° N 18:36:46 37° WNW 18:39:41 10° SW
YAOGAN 11 4.1 18:32:26 10° NNE 18:36:52 75° ESE 18:41:19 10° S
Cosmos 1602 Rocket 3.7 18:33:17 10° N 18:37:35 60° ENE 18:41:51 10° SSE
NOSS 3-4 (A) 3.8 18:33:15 10° NW 18:39:40 87° SW 18:47:19 10° SE
NOSS 3-4 (C) 3.8 18:33:52 10° NW 18:40:19 87° SW 18:47:58 10° SE
Cosmos 2333 Rocket 2.3 18:34:36 10° NW 18:40:20 83° WSW 18:46:03 10° SSE
CZ-4 R/B 4.0 18:40:56 10° WSW 18:42:40 13° W 18:44:24 10° WNW
USA 245 4.4 18:38:11 10° SSE 18:44:05 82° WSW 18:49:38 10° NNW
Cosmos 2061 Rocket 4.1 18:41:00 10° S 18:47:15 89° W 18:53:38 10° NNE
Cosmos 1933 3.5 18:44:57 10° S 18:48:37 49° E 18:52:19 10° NNE
Cosmos 44 Rocket 4.0 18:45:19 10° WSW 18:50:25 63° NW 18:55:37 10° NE
ATLAS 2AS CENTAUR R/B 3.7 18:44:37 10° W 18:51:19 51° NNW 18:57:56 10° ENE
Cosmos 1626 Rocket 4.1 18:49:55 10° NNW 18:54:12 57° W 18:58:30 10° S
Cosmos 1607 4.0 18:52:00 10° SW 18:58:13 89° NW 19:04:34 10° NE
Cosmos 2360 Rocket 2.3 18:52:42 10° NW 18:58:26 85° NE 19:03:37 13° SE
SPOT 3 Rocket 3.8 18:53:28 10° S 18:58:35 68° WSW 19:03:44 10° NNW
Cosmos 1805 2.8 18:56:16 10° N 18:59:32 69° ENE 19:02:14 14° SSE
Cosmos 1782 4.2 18:56:23 10° SW 18:59:37 34° WNW 19:02:53 10° N
Ariane Rocket 3.1 18:57:10 10° SSE 19:02:13 78° WSW 19:07:20 10° NNW
Cosmos 1076 Rocket 4.1 18:58:30 10° N 19:02:36 43° ENE 19:06:00 14° SE
Cosmos 2098 Rocket 3.5 18:58:41 10° SSE 19:03:13 46° E 19:07:12 10° NNE
Cosmos 2333 4.3 18:57:37 10° NNW 19:03:22 81° NE 19:08:32 13° SE
Meteor 1-25 Rocket 4.3 18:58:18 10° NNW 19:04:01 82° W 19:09:34 10° S
BREEZE-M DEB (TANK) 2.6 19:03:07 10° SW 19:05:08 19° S 19:05:37 18° SSE
Cosmos 220 Rocket 4.2 19:04:25 10° S 19:08:15 43° ESE 19:12:09 10° NE
Cosmos 1536 4.3 19:06:45 10° N 19:09:45 23° ENE 19:12:23 12° ESE
Cosmos 2219 Rocket 2.3 19:06:54 10° NNW 19:12:36 74° NE 19:17:33 14° SE
Helios 1A 4.3 19:10:17 10° NE 19:13:23 22° E 19:15:27 15° SE
Cosmos 1606 Rocket 3.9 19:12:21 14° SSE 19:15:53 46° E 19:20:01 10° NNE
Cosmos 2151 3.8 19:12:59 10° NNW 19:16:56 45° W 19:20:50 10° SSW
Cosmos 1763 Rocket 4.4 19:15:44 14° SSE 19:19:28 31° ESE 19:24:04 10° NE
Helios 1B rocket 3.3 19:18:06 14° ESE 19:20:35 31° ENE 19:23:43 10° N
Okean 1 3.7 19:18:41 17° SSE 19:21:01 38° E 19:24:24 10° NNE
Okean O Rocket 3.6 19:17:53 10° SW 19:21:17 22° W 19:24:42 10° NW
Cosmos 990 Rocket 4.0 19:18:31 10° NNW 19:23:42 76° ENE 19:27:52 16° SE
Cosmos 1726 Rocket 4.0 19:22:24 17° SSE 19:25:11 40° E 19:29:00 10° NNE
Cosmos 2034 Rocket 4.4 19:22:29 14° SSE 19:27:52 52° E 19:33:58 10° NNE
TSX-5 4.3 19:26:11 10° NNW 19:29:07 37° NE 19:31:39 13° ESE
Cosmos 2322 Rocket 2.5 19:23:48 10° NW 19:29:23 61° WSW 19:33:58 15° SSE
Okean 1-7 Rocket 3.7 19:25:23 10° NNW 19:29:51 75° W 19:33:33 15° S
RESURS DK-1 3.6 19:26:41 10° NNW 19:30:21 34° NE 19:34:01 10° ESE
Cosmos 1461 2.5 19:26:46 10° SSW 19:30:25 59° SE 19:34:02 10° NE
Cosmos 1470 4.4 19:29:27 10° NNE 19:31:51 18° ENE 19:33:54 12° ESE
CZ-2C R/B 3.2 19:30:01 14° SSW 19:32:06 34° W 19:34:41 10° NNW
CZ-4B R/B 4.3 19:28:07 10° S 19:32:38 42° W 19:37:15 10° NNW
Cosmos 1777 Rocket 4.4 19:29:43 10° NNW 19:34:52 57° WSW 19:39:00 15° S
Cosmos 2082 Rocket 3.1 19:30:48 10° WSW 19:36:23 52° NW 19:41:59 10° NNE
Cosmos 1544 Rocket 4.5 19:33:30 10° SSW 19:37:41 47° WNW 19:41:53 10° N
GRACE-FO 1 4.4 19:37:11 18° S 19:39:39 87° E 19:43:10 10° N
GRACE-FO 2 4.4 19:37:39 18° S 19:40:07 88° E 19:43:38 10° N
Cosmos 1437 Rocket 3.5 19:37:12 10° SW 19:40:39 47° WNW 19:44:10 10° N
Cosmos 1975 4.5 19:37:50 10° NNE 19:40:41 21° ENE 19:43:05 12° ESE
Cosmos 1503 Rocket 4.2 19:36:42 10° NNW 19:41:51 63° WSW 19:45:44 17° S
Nadezhda 4 Rocket 4.1 19:36:25 10° NNW 19:42:32 71° W 19:47:52 14° S
Cosmos 909 Rocket 4.3 19:36:20 10° SW 19:42:37 78° NW 19:49:26 10° NE
Cosmos 2237 Rocket 3.6 19:42:09 10° NNW 19:47:20 34° NE 19:52:29 10° ESE
NOSS 3-3 (A) 4.1 19:43:23 10° WSW 19:48:52 77° NW 19:55:40 10° NE
Cosmos 44 3.5 19:45:07 10° NW 19:50:34 84° SW 19:54:37 18° SE
Cosmos 1634 Rocket 4.5 19:48:17 18° SSE 19:52:39 46° E 19:58:32 10° NNE
ISS -3.3 19:49:36 10° WSW 19:52:47 40° S 19:54:30 22° SE
Cosmos 1354 Rocket 4.1 19:50:13 10° NNW 19:55:28 69° WSW 19:59:07 20° SSE
COSMOS 2428 3.1 19:50:27 10° NNW 19:56:07 60° NE 20:00:54 14° SE
Cosmos-2242 3.3 19:54:02 22° SSE 19:56:26 48° E 20:00:25 10° NNE
SL-16 R/B 3.8 19:54:09 10° NW 19:58:43 25° WSW 20:03:16 10° SSW
USA 306 2.5 19:56:49 10° W 19:58:04 23° WSW 19:58:04 23° WSW
CZ-2C R/B 4.3 19:56:33 10° ESE 20:00:44 25° NE 20:04:53 10° N
KORONAS-FOTON 4.5 19:59:46 23° SE 20:01:03 32° E 20:04:07 10° NNE
USA 290 2.0 20:01:14 22° SSW 20:03:07 72° ESE 20:06:15 10° NNE
Cosmos 1825 Rocket 4.4 20:00:23 10° NNW 20:04:30 42° W 20:07:46 15° SSW
Cosmos 1707 2.2 20:04:33 33° SSE 20:05:28 50° E 20:08:15 10° NNE
Cosmos 2026 Rocket 4.1 19:59:07 10° NNW 20:05:31 81° W 20:10:23 18° S
CZ-4C R/B 3.5 20:00:52 10° W 20:05:41 44° NNW 20:11:57 10° ENE
Cosmos 372 Rocket 4.0 20:02:05 10° NNW 20:07:15 80° ENE 20:10:44 21° SSE
Cosmos 1953 Rocket 3.8 20:05:33 10° NNW 20:09:52 60° W 20:12:42 20° S
COSMOS 2406 4.0 20:08:41 10° SW 20:14:20 54° NW 20:19:58 10° NNE
Aureole 1 Rocket 3.9 20:10:42 10° NNW 20:16:09 75° WSW 20:20:45 21° SSE
Meteor 1-14 Rocket 4.4 20:12:09 10° N 20:17:42 64° ENE 20:21:27 21° SSE
NOSS 3-3 (C) 4.4 20:14:37 10° WSW 20:20:12 66° NNW 20:27:07 10° NE
Cosmos 1271 Rocket 3.4 20:19:21 25° SE 20:20:27 31° E 20:23:29 10° NNE
Cosmos 2221 3.6 20:18:37 21° SE 20:20:30 29° E 20:24:09 10° NNE
Cosmos 540 Rocket 3.4 20:18:42 16° SSW 20:22:48 76° ESE 20:27:57 10° NNE
Cosmos 2058 Rocket 3.0 20:20:44 23° S 20:23:20 75° E 20:27:41 10° NNE
Cosmos 2333 Rocket 4.1 20:19:54 10° WNW 20:23:49 19° W 20:27:45 10° SW
Cosmos 1937 Rocket 3.7 20:19:54 10° NNW 20:25:03 66° ENE 20:28:40 19° SE
Cosmos 1766 3.5 20:24:47 10° NNW 20:27:53 45° W 20:29:18 26° SSW
Geosat 3.9 20:25:05 10° NE 20:30:07 82° ESE 20:34:37 13° SSW
Spot 4 3.8 20:28:46 24° SSE 20:31:42 85° ENE 20:36:31 10° NNW
BREEZE-M R/B 4.4 20:26:01 10° W 20:33:28 52° SSW 20:39:03 10° ESE
Cosmos 468 Rocket 4.2 20:30:46 22° S 20:34:04 58° ESE 20:39:13 10° NNE
Cosmos 1842 2.9 20:33:12 35° SSE 20:34:12 54° E 20:37:18 10° NNE
Cosmos 1833 4.1 20:29:39 12° SSW 20:34:55 84° ESE 20:40:35 10° NE
CZ-2C R/B 4.4 20:31:53 10° NNE 20:36:56 31° E 20:40:12 18° SE
ARIANE 5 R/B 2.6 20:34:30 26° SSE 20:37:02 87° WSW 20:41:32 10° NNW
Cosmos 2297 Rocket 3.8 20:35:27 16° SE 20:37:45 20° E 20:41:45 10° NE
ALOS 2 2.6 20:35:46 26° SSE 20:38:16 82° ENE 20:42:41 10° NNW
Meteor 2-6 Rocket 4.4 20:35:52 22° S 20:39:49 69° E 20:45:45 10° NNE
USA 234 4.0 20:36:01 10° ENE 20:41:43 31° SE 20:44:47 21° S
Cosmos 2360 Rocket 3.8 20:37:26 10° NW 20:41:47 23° WSW 20:45:21 13° SSW
Cosmos 2322 3.7 20:36:05 10° NW 20:41:47 72° WSW 20:45:23 23° SSE
ATLAS 2AS CENTAUR R/B 3.9 20:36:55 10° WNW 20:43:25 44° N 20:49:54 10° E
Cosmos 1536 3.4 20:41:39 10° NNW 20:45:09 41° W 20:46:54 24° SSW
Helios 1A 3.5 20:44:31 10° N 20:48:19 50° WNW 20:51:10 17° SW
Helios 1B rocket 3.4 20:52:03 21° SW 20:53:34 29° W 20:56:41 10° NW
PSLV R/B 3.9 20:51:04 10° NNE 20:55:15 52° E 20:57:18 28° SSE
Cosmos 2219 Rocket 3.5 20:51:24 10° NW 20:56:04 27° WSW 20:59:14 17° SSW
Cosmos 1898 Rocket 3.6 20:51:33 10° NNW 20:56:40 62° WSW 20:59:35 25° S
SeaSat 1 3.1 20:55:07 11° ESE 20:59:45 52° NE 21:04:31 10° NNW
Cosmos 1766 Rocket 4.4 20:56:49 10° N 21:00:55 40° ENE 21:03:33 19° SE
Cosmos 1763 Rocket 4.0 20:55:42 10° SW 21:00:55 58° NW 21:06:09 10° NNE
Meteor 1-19 Rocket 4.5 20:57:24 24° S 21:00:56 63° E 21:06:49 10° NNE
Cosmos 1470 3.0 21:02:49 10° NNW 21:05:58 42° W 21:07:06 30° SW
Cosmos 1461 4.3 21:03:30 10° W 21:06:53 33° NNW 21:10:14 10° NE
RESURS DK-1 2.8 21:04:01 10° NW 21:07:49 43° WSW 21:09:14 30° SSW
NOSS 0 Rocket 4.0 21:06:10 10° NW 21:12:18 64° WSW 21:16:10 23° SSE
Cosmos 2322 Rocket 4.3 21:09:43 10° WNW 21:12:18 13° W 21:14:53 10° WSW
NOSS 8 (H) 4.0 21:11:20 10° WNW 21:14:10 60° SW 21:14:47 46° S
BREEZE-M DEB (TANK) 3.9 21:08:40 10° W 21:15:09 39° SSW 21:19:53 10° ESE
Cosmos 1975 3.1 21:12:20 10° NNW 21:15:54 47° W 21:17:20 29° SSW
Intercosmos 24 3.8 21:14:00 10° N 21:18:13 72° ENE 21:19:53 30° SSE
MetOp-A 3.8 21:16:05 26° SSE 21:18:52 82° WSW 21:23:34 10° NNW
SL-16 R/B 3.4 21:13:35 10° NNW 21:19:00 42° NE 21:24:24 10° ESE
Lacrosse 4 Rocket 3.0 21:25:45 17° SE 21:26:37 18° ESE 21:29:26 10° ENE
ISS -1.7 21:26:26 10° WSW 21:27:25 16° WSW 21:27:25 16° WSW
SAR-Lupe-2 4.3 21:29:02 28° SW 21:30:01 35° W 21:33:07 10° NNW
CZ-2C R/B 4.3 21:26:51 10° N 21:31:10 50° WNW 21:34:12 19° SW
Cosmos 2237 Rocket 2.2 21:26:13 10° NW 21:31:55 75° WSW 21:35:41 22° SSE
Cosmos 841 Rocket 3.4 21:29:04 24° SSW 21:32:17 82° ESE 21:37:34 10° NNE
Cosmos 2279 Rocket 4.4 21:29:54 18° SSW 21:34:31 60° WNW 21:40:45 10° N
Meteor 1-11 Rocket 4.0 21:30:01 10° NNW 21:35:38 60° W 21:38:54 24° SSW
Cosmos 1980 3.7 21:30:19 10° NW 21:35:57 67° WSW 21:39:29 23° SSE
Cosmos 1812 Rocket 3.6 21:33:38 27° SSW 21:35:59 77° WNW 21:40:26 10° N
NOSS 8 (E) 4.2 21:34:38 10° WNW 21:37:29 53° SW 21:38:00 45° S
COSMOS 2428 3.6 21:35:01 10° NW 21:40:07 35° WSW 21:42:51 22° SSW
CZ-2C R/B 2.6 21:37:19 25° S 21:40:30 78° WSW 21:45:44 10° NNW
ACS3 Solar Sail 2.8 21:35:28 10° NNE 21:40:56 35° E 21:45:00 17° SSE
CZ-4C R/B 4.4 21:38:01 10° NE 21:40:57 27° E 21:42:10 21° SE
Meteor 2-4 Rocket 4.0 21:41:22 24° SSE 21:44:35 56° E 21:50:00 10° NNE
Meteor 1-10 Rocket 4.4 21:40:49 23° SSW 21:44:41 82° WNW 21:50:41 10° NNE
Cosmos 2227 Rocket 3.5 21:44:30 18° SSE 21:47:30 28° ESE 21:52:14 10° NE
Meteor 2-20 4.4 21:45:33 23° SSW 21:49:31 88° W 21:55:39 10° NNE
Okean 3 Rocket 4.3 21:46:03 10° N 21:50:27 50° ENE 21:53:40 18° SE
NOSS 8 (F) 4.4 21:49:59 10° WNW 21:52:47 43° SW 21:53:03 41° SSW
Cosmos 1271 Rocket 4.1 21:52:42 15° WSW 21:54:41 25° WNW 21:57:35 10° N
CZ-4C R/B 3.8 21:49:37 10° WNW 21:55:04 45° NNE 22:02:08 10° E
Cosmos 192 4.3 21:51:12 10° NNW 21:56:09 82° WSW 21:59:23 22° SSE
Cosmos 2221 3.4 21:54:54 19° SW 21:57:25 38° WNW 22:01:23 10° N
GP-B 3.7 21:55:00 10° N 21:59:13 47° W 22:01:32 24° SW
Cosmos 2263 Rocket 3.8 21:56:11 14° SE 21:59:24 23° ESE 22:03:38 10° NE
Cosmos 2266 Rocket 4.5 21:53:48 10° NNW 21:59:31 46° W 22:03:14 21° SSW
Meteor 1-27 Rocket 3.8 21:56:56 24° SSW 22:00:39 90° WNW 22:06:26 10° NNE
Cosmos 1842 Rocket 4.0 22:01:31 25° SSE 22:03:52 54° E 22:08:12 10° NNE
Cosmos 1238 Rocket 2.8 22:02:31 30° S 22:04:26 89° W 22:08:52 10° N
Cosmos 1805 Rocket 4.3 22:06:12 10° N 22:10:26 48° ENE 22:13:49 15° SE
Sich 1 2.9 22:09:37 10° N 22:13:49 82° E 22:16:18 24° SSE
Iridium 4 Rocket 3.8 22:11:57 22° S 22:15:44 82° E 22:21:36 10° N
Landsat 5 3.3 22:12:50 10° NNE 22:17:00 88° ESE 22:19:05 28° SSW
CZ-2C R/B 3.6 22:11:24 10° NNE 22:17:03 64° WNW 22:21:10 20° SW
Cosmos 2297 Rocket 2.2 22:17:12 22° SSW 22:21:02 86° ESE 22:26:43 10° NE
Cosmos 1655 Rocket 4.2 22:16:27 10° NNW 22:22:33 59° W 22:26:42 21° SSW
Cosmos 1758 3.1 22:19:29 10° N 22:23:07 76° ENE 22:25:11 24° SSE
USA 234 3.2 22:18:57 10° ENE 22:25:30 69° SSE 22:32:02 10° WSW
Alouette 2 Rocket 4.3 22:30:13 10° NNW 22:33:35 34° W 22:35:30 23° SSW
Cosmos 1408 Rocket 3.5 22:30:49 10° N 22:35:07 80° ENE 22:38:11 19° SSE
ATLAS 2AS CENTAUR R/B 2.9 22:28:24 10° NW 22:35:14 73° NNE 22:42:01 10° ESE
Cosmos 1340 Rocket 2.9 22:32:37 10° N 22:36:28 69° ENE 22:39:16 17° SSE
SeaSat 1 3.0 22:34:43 22° SSW 22:37:16 38° WSW 22:41:52 10° NW
Meteor 2-10 Rocket 4.0 22:31:59 10° NNW 22:37:19 54° W 22:40:59 21° SSW
Iridium 45 4.5 22:37:58 26° S 22:39:49 78° E 22:43:15 10° N
SL-14 R/B 3.2 22:38:08 25° S 22:40:15 74° E 22:44:03 10° NNE
Cosmos 1125 Rocket 3.5 22:38:32 10° NNW 22:43:51 80° WSW 22:48:47 12° SSE
BlueWalker 3 2.8 22:43:33 25° S 22:44:13 26° SSE 22:47:15 10° E
Cosmos 1066 Rocket 4.2 22:40:54 21° SSW 22:44:35 77° WNW 22:50:10 10° NNE
Meteor 1-18 Rocket 4.2 22:49:51 20° SSW 22:53:50 82° WNW 22:59:34 10° NNE
DELTA 2 DEB (DPAF) 3.7 22:50:23 10° N 22:53:55 62° WNW 22:55:55 24° SW
Cosmos 2084 3.3 22:50:27 10° WNW 22:54:31 57° SW 22:58:33 10° SE
Cosmos 1814 Rocket 4.0 22:59:05 19° SSW 23:02:51 79° WNW 23:08:09 10° NNE
Cosmos 1953 3.0 22:59:28 10° N 23:03:01 47° ENE 23:06:33 10° SSE
SL-16 R/B 2.3 22:57:45 10° NW 23:03:20 56° WSW 23:08:40 11° S
Lacrosse 4 Rocket 1.3 23:01:08 20° SW 23:03:52 79° NW 23:08:01 10° NE
BREEZE-M DEB (TANK) 3.8 23:07:01 21° S 23:07:08 21° S 23:10:56 10° SE
CZ-2D R/B 4.4 23:04:29 10° NE 23:08:09 18° E 23:11:50 10° SE
IDEFIX/ARIANE 42P 3.1 23:03:07 10° NNE 23:08:15 53° E 23:12:47 13° S
Cosmos 2219 4.1 23:04:46 14° S 23:09:11 39° ESE 23:14:24 10° NE
NPP 4.4 23:08:13 10° NNE 23:13:26 47° E 23:18:30 11° S
CZ-4C R/B 4.2 23:10:45 10° N 23:13:46 31° WNW 23:15:55 16° WSW
Cosmos 2237 Rocket 3.8 23:11:30 10° WNW 23:15:04 17° W 23:17:27 13° SW
H-2A R/B 4.5 23:12:20 10° NE 23:15:58 18° E 23:19:36 10° SE
Cosmos 1633 Rocket 3.7 23:13:15 10° N 23:17:31 55° ENE 23:21:45 10° SSE
Cosmos 1151 Rocket 3.0 23:15:33 19° SSW 23:18:37 75° WNW 23:22:57 10° N
Cosmos 1500 Rocket 4.0 23:15:27 10° NNW 23:19:42 46° W 23:22:48 17° SSW
S3M 4.2 23:14:46 12° S 23:20:26 72° E 23:26:34 10° NNE
CZ-2C R/B 4.5 23:18:46 11° WSW 23:21:36 16° W 23:24:41 10° NW
PSLV R/B 4.0 23:17:48 10° N 23:21:39 61° WNW 23:24:24 18° SSW
ACS3 Solar Sail 2.1 23:17:43 10° N 23:23:33 56° WNW 23:28:30 15° SW
Meteor 1-22 Rocket 4.3 23:18:55 10° NNW 23:24:49 81° WSW 23:30:26 10° S
CENTAUR R/B 4.2 23:21:03 10° SSE 23:25:22 23° ESE 23:30:27 10° ENE
In-Cosmos 22 4.5 23:23:38 16° SSW 23:28:02 61° WNW 23:33:41 10° N
Cosmos 2315 Rocket 4.3 23:22:20 10° S 23:28:37 67° E 23:34:54 10° NNE
Cosmos 2227 Rocket 2.3 23:26:17 15° SW 23:31:05 73° NW 23:36:47 10° NNE
H-2A R/B 4.0 23:31:30 10° SE 23:34:41 31° ENE 23:37:55 10° N
Envisat 4.4 23:31:15 10° NNE 23:35:50 33° E 23:40:22 10° SSE
Cosmos 2263 Rocket 2.2 23:37:50 14° SW 23:42:40 85° NW 23:48:18 10° NE
BREEZE-M DEB (TANK) 3.3 23:35:38 10° WSW 23:43:47 40° S 23:47:01 10° ESE
MSX 3.9 23:38:15 10° NNE 23:44:03 90° NW 23:49:33 12° SSW
CZ-4C R/B 3.0 23:37:47 10° NW 23:44:06 79° NE 23:52:16 10° ESE
Cosmos 1709 Rocket 4.1 23:38:56 10° NNW 23:45:01 63° W 23:51:09 10° S
SL-16 R/B 4.4 23:42:26 10° ESE 23:47:56 34° NE 23:53:25 10° N
Cosmos 1666 Rocket 3.6 23:44:37 10° NNW 23:49:04 68° W 23:53:28 10° S
Cosmos 1943 3.2 23:43:32 10° NW 23:49:05 61° WSW 23:54:36 10° SSE
Meteor 1-15 Rocket 4.4 23:45:01 10° NNW 23:50:55 74° W 23:56:49 10° S
Cosmos 1867 3.5 23:45:43 10° NW 23:51:10 71° SW 23:56:36 10° SE
Cosmos 1743 Rocket 4.4 23:48:51 10° NNW 23:52:46 34° W 23:56:12 12° SSW
NOSS 7 (H) 4.4 23:51:49 10° WNW 23:54:38 41° SW 23:57:32 10° SSE
